Flag for Guyana Weather past 2 weeks in Georgetown, Guyana

Now
75 °F

Partly sunny.


Feels Like: 73 °F
Forecast: 79 / 88 °F
Wind: No wind

Location: Georgetown/Cheddi Jagan International Airport

Current Time: Sep 2, 2015 at 6:33:34 AM

Latest Report: Sep 2, 2015 at 6:00 AM


Visibility: N/A

Pressure: 29.92 "Hg

Humidity: 100%

Dew point: 75 °F

Location of GeorgetownLocation

Historic Weather in Georgetown — Graph

°F

Georgetown temperature yesterday

Maximum temperature yesterday: 91 °F (at 1:00 PM)
Minimum temperature yesterday: 73 °F (at 5:00 AM)
Average temperature yesterday: 82 °F

Past Weeks' High & Low Weather Summary

 TemperatureHumidityPressure
High93 °F (Aug 20, 4:00 PM)100% (Aug 18, 6:00 AM)29.98 "Hg (Aug 18, 6:00 AM)
Low73 °F (Aug 20, 4:00 AM)49% (Aug 30, 2:00 PM)29.77 "Hg (Aug 22, 4:00 PM)
Average81 °F85%29.88 "Hg
* Reported Aug 18 6:00 AM — Sep 2 5:00 AM, Georgetown, Weather by CustomWeather, © 2015

Note: Actual official high and low records may vary slightly from our data, if they occured in-between our weather recording intervals... More about our weather records

Advertising

Georgetown weather history for previous 24 hours

 ConditionsComfort  
Time TempWeatherWind HumidityBarometerVisibility
5:00 AM
Wed, Sep 2
73 °FPartly cloudy.No wind100%29.92 "HgN/A
4:00 AM75 °FPartly cloudy.No wind94%29.92 "HgN/A
2:00 AM75 °FPartly cloudy.No wind100%29.92 "HgN/A
1:00 AM77 °FPassing clouds.No wind94%29.92 "HgN/A
12:00 AM77 °FPassing clouds.No wind100%29.95 "HgN/A
11:00 PM
Tue, Sep 1
77 °FPassing clouds.No wind100%29.95 "HgN/A
10:00 PM77 °FPassing clouds.No wind100%29.98 "HgN/A
9:00 PM79 °FPassing clouds.5 mph94%29.95 "HgN/A
8:00 PM81 °FPassing clouds.5 mph84%29.92 "HgN/A
7:00 PM81 °FPassing clouds.7 mph84%29.89 "HgN/A
5:00 PM86 °FPartly sunny.9 mph70%29.89 "HgN/A
4:00 PM88 °FPartly sunny.9 mph62%29.86 "HgN/A
3:00 PM90 °FScattered clouds.12 mph59%29.86 "HgN/A
2:00 PM91 °FScattered clouds.12 mph56%29.89 "HgN/A
1:00 PM91 °FPartly sunny.14 mph56%29.89 "HgN/A
12:00 PM90 °FPartly sunny.9 mph55%29.95 "HgN/A
9:00 AM86 °FPartly sunny.2 mph75%29.98 "HgN/A
8:00 AM81 °FPassing clouds.2 mph89%29.98 "HgN/A
7:00 AM75 °FPassing clouds.5 mph94%29.95 "Hg6 mi
6:00 AM73 °FScattered clouds.5 mph100%29.95 "Hg5 mi
Weather by CustomWeather, © 2015

See weather overviewHow to use our weather pages